Wind_Speed
46 49 49 49 47 46 43 40 38 37 37 37 37 37 36 33 31 30 28 27 25 23 21 20 18 17 16 17 17 18 19 21 23 24 26 27 29 30 31 30 29 29 28
45 45 46 48 45 43 37 34 35 36 37 38 38 37 35 32 30 28 26 25 23 21 19 17 17 17 17 18 19 19 20 21 23 24 25 26 28 29 30 31 30 29 29
41 41 41 39 36 34 32 31 33 36 37 38 37 35 33 31 30 27 25 24 22 20 19 19 19 20 20 20 21 20 20 21 23 25 26 26 26 28 29 30 31 30 30
40 40 38 36 29 28 29 32 34 35 36 37 37 34 32 31 29 27 26 24 23 23 22 22 23 23 23 23 22 21 21 21 22 24 26 27 27 27 26 28 30 30 30
38 37 39 39 35 32 30 33 34 35 35 35 35 33 33 31 29 27 26 26 26 26 26 27 27 27 26 25 24 23 22 22 23 24 26 26 27 27 26 25 28 30 30
37 38 38 38 38 39 37 35 35 34 34 34 35 34 33 31 29 28 28 28 29 30 30 30 31 30 29 27 26 25 25 25 25 26 26 26 26 26 26 24 25 28 30
36 37 38 38 39 39 40 40 37 36 35 36 37 37 35 32 31 30 30 30 32 33 33 33 33 33 31 29 28 27 27 27 27 27 27 26 26 25 25 24 24 26 28
37 39 40 41 42 42 43 42 42 42 41 41 42 41 40 38 36 35 33 34 35 36 36 35 35 34 33 32 31 30 30 29 29 28 27 26 26 25 24 24 24 24 26
41 43 45 46 47 47 48 48 48 48 48 48 47 47 46 45 43 42 41 39 39 39 40 39 37 36 36 35 34 33 31 31 30 29 28 26 25 24 24 23 23 23 23
44 46 48 50 51 52 53 54 54 54 54 55 55 54 54 53 52 50 49 48 46 44 44 43 41 40 39 38 37 35 33 32 32 31 29 27 25 24 23 22 22 22 22
48 50 52 54 55 57 58 59 60 60 60 60 60 60 60 60 59 58 57 56 54 51 49 47 45 44 42 41 40 38 36 34 33 31 29 27 25 24 23 22 21 21 20
52 54 56 57 59 60 61 62 63 64 64 65 65 65 65 64 64 64 63 62 60 58 55 52 50 47 45 44 43 41 39 36 34 32 30 28 26 24 23 21 20 20 20
57 59 61 62 64 65 66 67 68 68 69 69 68 68 68 68 68 67 67 66 65 64 62 59 56 52 49 47 46 44 42 39 37 35 32 30 28 25 23 21 20 19 19
64 66 68 69 71 72 73 74 75 75 75 75 75 74 74 74 73 72 71 70 69 67 65 64 61 57 54 52 49 47 45 42 40 37 35 32 29 26 23 21 20 19 19
69 71 73 74 76 77 76 75 73 72 72 72 73 74 75 77 78 78 78 77 75 73 71 68 65 63 60 57 54 51 48 45 42 40 37 34 30 27 24 21 19 18 18
73 75 75 74 71 67 62 57 55 53 51 51 51 53 56 60 65 71 76 78 80 80 78 75 72 69 65 62 59 55 52 49 45 42 39 35 31 27 24 21 20 19 18
73 69 62 55 49 46 44 43 43 42 42 41 41 41 41 42 43 47 53 60 67 73 77 79 78 75 71 66 62 57 55 52 48 44 41 36 32 28 25 22 21 20 18
59 51 46 43 43 43 43 44 44 44 44 43 42 42 41 40 39 39 40 43 48 54 62 69 74 76 75 70 65 60 57 52 49 46 43 38 33 29 26 24 22 21 19
47 45 45 45 45 45 46 47 48 47 47 46 46 45 43 42 41 39 37 37 38 40 45 51 59 65 69 71 68 62 57 51 49 46 43 39 34 30 27 25 23 22 21
47 48 48 48 48 49 50 51 50 50 49 48 47 45 45 44 43 41 40 39 39 37 36 39 44 51 56 61 64 63 56 51 49 44 41 38 34 31 29 27 25 23 22
49 50 50 51 52 53 53 53 52 51 50 49 48 46 45 43 42 40 39 38 37 36 34 33 35 40 45 51 56 58 55 51 49 45 41 37 35 32 31 29 27 25 23
50 51 52 53 54 54 54 53 52 50 49 48 46 45 43 42 41 39 37 36 35 33 31 31 30 32 36 43 50 53 53 49 46 44 41 36 34 33 31 29 28 27 25
52 54 55 55 55 55 54 53 51 50 48 47 44 42 41 40 39 37 35 33 32 31 30 28 27 28 30 35 44 51 53 51 47 44 40 36 34 33 31 30 28 27 24
54 55 56 56 55 54 53 52 51 49 46 43 41 41 40 38 36 33 32 31 30 29 28 27 26 26 29 31 38 47 52 50 47 44 42 39 36 34 32 29 27 26 24
56 57 57 57 56 54 52 50 47 44 42 40 37 37 35 33 31 29 29 28 27 26 25 24 24 24 26 29 34 42 51 49 47 45 42 39 36 33 30 28 26 25 23
58 58 57 56 55 52 48 45 41 38 36 34 33 31 30 28 27 26 24 24 23 22 21 20 21 21 21 25 31 40 49 49 47 44 41 38 35 31 29 27 26 24 22
Wind_Direction
279 278 277 276 273 272 273 275 277 281 285 290 294 298 299 298 295 292 289 285 280 275 269 268 269 273 279 284 290 296 301 304 306 305 302 298 292 286 280 275 272 270 269
276 273 273 271 265 263 266 267 271 280 285 290 294 298 298 296 292 289 285 279 273 269 265 264 267 273 278 283 288 295 302 306 309 311 310 305 297 290 282 275 270 267 266
277 272 265 264 258 258 264 268 273 279 285 290 293 296 295 294 292 287 280 272 266 261 259 262 269 274 276 280 285 292 299 305 309 314 315 313 304 294 287 278 271 265 262
282 281 275 276 273 271 271 277 278 282 287 289 291 291 291 291 289 283 276 265 257 256 259 264 270 274 276 278 281 286 293 301 306 312 315 315 311 302 291 282 274 266 261
289 291 292 292 286 289 289 290 288 287 287 287 286 287 290 290 287 279 272 264 256 257 261 267 272 275 277 278 280 283 288 296 303 309 313 314 313 308 298 285 275 267 261
294 295 297 296 295 294 294 296 294 292 288 286 287 288 289 288 286 280 273 264 260 259 262 269 274 276 277 278 280 282 287 292 298 305 309 312 312 309 304 293 279 269 262
296 295 295 293 292 292 292 294 292 291 287 285 286 286 285 284 282 279 276 271 267 265 264 267 272 275 276 276 279 282 284 288 294 300 305 309 310 310 307 300 286 273 264
298 297 296 294 293 291 290 290 288 286 284 283 283 283 283 281 279 276 274 272 271 270 270 270 272 273 273 274 276 279 282 284 288 294 300 305 308 310 308 303 293 279 268
297 296 295 294 293 291 289 287 286 284 282 281 280 280 279 278 276 274 271 268 268 269 271 271 272 272 272 272 274 277 279 280 283 287 294 300 304 307 307 305 299 286 273
296 294 292 290 289 288 287 285 284 283 281 280 279 278 277 275 274 272 271 269 267 266 266 268 268 269 270 271 272 273 275 276 278 282 287 294 299 303 305 305 301 291 277
294 293 291 289 288 287 285 284 282 281 279 278 277 276 275 274 272 271 270 268 267 266 264 263 264 265 267 267 269 269 270 271 273 276 281 287 294 299 302 304 302 294 281
293 292 291 290 289 288 286 285 283 281 279 277 275 274 273 272 271 270 268 268 267 265 264 262 261 261 263 264 265 264 265 266 267 270 275 281 288 294 299 301 301 295 284
295 294 293 292 290 289 287 285 283 281 279 277 275 273 271 270 269 268 267 266 265 265 264 262 261 260 259 260 261 261 260 260 262 264 269 275 282 287 294 298 299 294 285
298 297 295 294 291 289 287 285 283 281 278 276 274 272 270 268 267 266 265 264 264 263 262 261 260 259 257 257 259 259 258 257 258 260 264 269 275 280 287 292 295 292 284
300 299 297 294 293 291 289 288 286 284 282 279 276 273 270 267 265 264 263 262 261 261 261 260 259 258 258 256 257 257 257 257 256 256 259 263 268 274 280 286 290 289 283
302 300 298 296 296 295 295 294 293 292 290 288 285 280 276 272 268 265 262 261 260 260 259 259 258 257 257 257 256 255 257 256 254 253 254 257 262 268 273 280 284 286 282
304 303 303 303 303 302 301 300 298 297 296 294 292 290 288 284 279 274 269 265 262 259 258 257 256 256 256 256 256 255 255 253 250 249 249 251 256 262 269 276 281 282 282
310 311 309 307 306 305 303 301 299 297 295 292 291 290 288 287 286 283 278 273 269 264 259 256 254 254 253 253 253 254 253 250 247 245 244 246 251 257 264 271 276 279 280
314 312 310 308 307 305 303 301 299 296 293 291 289 287 285 285 284 283 282 279 276 272 265 259 255 252 250 249 249 248 247 244 243 240 238 242 247 252 260 267 272 275 275
314 312 310 308 306 304 302 300 298 295 292 290 287 285 283 283 280 279 278 277 275 272 270 264 258 252 249 245 243 242 240 237 236 233 234 238 243 250 258 263 267 269 270
315 313 311 308 306 304 302 300 298 296 293 290 287 284 282 281 280 278 275 273 272 269 267 264 259 252 246 239 234 232 231 230 231 231 234 237 242 247 253 257 261 263 264
317 314 312 310 308 306 304 301 298 296 293 290 286 284 281 279 279 276 271 269 268 264 263 263 259 251 244 236 227 222 219 220 223 226 229 233 238 243 247 252 256 258 259
320 317 314 313 310 308 305 302 300 296 292 289 285 282 281 278 277 274 268 265 263 260 259 259 257 249 242 233 222 214 209 211 216 220 224 227 232 237 242 246 250 252 253
323 321 318 316 314 310 306 303 299 295 291 288 284 281 280 278 275 270 264 261 257 255 255 255 254 249 241 231 219 210 203 203 209 214 216 220 226 231 237 241 243 246 246
327 325 322 319 317 313 309 305 301 296 290 286 283 282 279 276 271 265 261 256 251 248 248 249 249 247 239 227 214 205 200 198 200 206 210 215 221 226 231 234 237 238 238
331 330 328 325 322 319 314 309 304 298 292 286 281 279 277 273 266 260 254 245 241 238 239 242 241 238 230 219 210 204 197 193 193 198 204 210 215 219 223 227 229 231 228
Height
5859 5853 5846 5840 5837 5834 5831 5834 5837 5839 5839 5839 5838 5837 5836 5835 5834 5833 5832 5831 5830 5830 5830 5830 5830 5830 5829 5828 5827 5826 5825 5823 5821 5820 5818 5817 5815 5814 5814 5815 5816 5817 5818
5845 5839 5836 5826 5823 5821 5819 5824 5827 5830 5831 5831 5830 5830 5828 5828 5827 5826 5826 5825 5824 5824 5825 5825 5825 5825 5824 5824 5822 5821 5819 5817 5815 5813 5811 5810 5808 5806 5806 5806 5807 5809 5810
5835 5828 5820 5812 5806 5803 5808 5813 5819 5822 5823 5823 5823 5822 5822 5821 5820 5820 5819 5819 5819 5819 5820 5820 5820 5820 5819 5818 5817 5816 5814 5812 5809 5806 5804 5802 5801 5798 5798 5797 5798 5799 5801
5828 5820 5810 5806 5801 5799 5802 5809 5813 5814 5815 5815 5816 5815 5815 5814 5814 5813 5813 5813 5813 5814 5814 5814 5814 5814 5814 5813 5811 5810 5808 5807 5804 5801 5798 5795 5793 5791 5790 5789 5789 5790 5792
5824 5818 5811 5808 5805 5802 5801 5806 5806 5807 5807 5807 5807 5807 5807 5807 5806 5806 5806 5806 5807 5808 5808 5808 5808 5807 5807 5806 5805 5804 5802 5800 5798 5796 5792 5789 5786 5783 5782 5782 5781 5781 5783
5821 5817 5813 5809 5806 5804 5801 5800 5801 5801 5800 5800 5800 5800 5800 5799 5799 5798 5798 5799 5799 5800 5801 5801 5801 5800 5800 5799 5798 5797 5796 5794 5792 5789 5786 5783 5780 5777 5774 5774 5773 5773 5774
5818 5814 5810 5806 5803 5801 5797 5796 5796 5795 5794 5793 5793 5792 5792 5792 5791 5791 5791 5791 5791 5791 5792 5793 5793 5793 5792 5792 5791 5790 5789 5788 5786 5783 5781 5777 5774 5771 5768 5766 5766 5765 5766
5814 5809 5804 5801 5798 5795 5793 5790 5789 5787 5786 5785 5784 5783 5782 5782 5782 5782 5783 5783 5782 5782 5783 5784 5784 5784 5784 5784 5783 5783 5782 5781 5779 5777 5774 5771 5768 5765 5762 5760 5759 5758 5759
5807 5802 5796 5792 5788 5786 5783 5781 5779 5777 5775 5774 5773 5771 5771 5771 5771 5771 5771 5772 5772 5772 5773 5773 5774 5775 5775 5775 5775 5775 5774 5774 5772 5771 5768 5765 5762 5759 5756 5754 5752 5752 5752
5799 5793 5788 5783 5778 5774 5770 5768 5766 5764 5762 5760 5759 5758 5758 5757 5757 5757 5758 5758 5760 5761 5761 5762 5763 5764 5765 5765 5765 5766 5766 5766 5765 5764 5762 5759 5756 5754 5751 5748 5746 5745 5746
5789 5783 5777 5772 5767 5762 5757 5753 5750 5748 5746 5744 5743 5742 5741 5741 5741 5741 5742 5743 5744 5746 5748 5749 5750 5751 5753 5754 5755 5755 5756 5757 5757 5756 5755 5753 5750 5748 5745 5743 5741 5739 5739
5777 5771 5765 5759 5754 5748 5743 5738 5734 5731 5728 5726 5725 5724 5723 5722 5722 5723 5723 5725 5726 5729 5731 5734 5736 5738 5740 5742 5743 5744 5746 5747 5748 5748 5747 5746 5744 5742 5739 5737 5735 5734 5733
5764 5757 5750 5744 5737 5731 5726 5721 5716 5712 5708 5706 5705 5703 5702 5702 5702 5702 5703 5705 5707 5709 5712 5716 5720 5723 5726 5728 5730 5732 5734 5736 5737 5738 5739 5738 5737 5735 5733 5731 5729 5728 5727
5748 5740 5733 5725 5718 5711 5704 5698 5693 5688 5685 5682 5681 5679 5678 5678 5679 5680 5682 5684 5686 5689 5692 5696 5700 5705 5710 5713 5716 5718 5721 5724 5726 5728 5729 5730 5729 5728 5726 5725 5723 5722 5722
5730 5721 5712 5703 5694 5686 5679 5672 5666 5661 5657 5655 5653 5653 5652 5652 5653 5655 5657 5660 5663 5667 5670 5675 5680 5685 5691 5696 5700 5704 5707 5711 5714 5717 5719 5721 5721 5720 5719 5718 5717 5716 5716
5710 5699 5688 5678 5670 5662 5655 5649 5644 5639 5635 5632 5629 5627 5626 5626 5627 5628 5631 5634 5638 5642 5647 5652 5658 5664 5671 5677 5683 5688 5693 5697 5701 5705 5708 5710 5712 5712 5712 5711 5710 5710 5710
5688 5676 5666 5657 5650 5644 5639 5634 5630 5625 5622 5618 5615 5612 5610 5609 5608 5607 5608 5610 5612 5616 5622 5628 5634 5642 5650 5657 5664 5671 5677 5682 5688 5692 5696 5700 5702 5703 5704 5704 5704 5704 5704
5668 5659 5651 5645 5639 5633 5627 5622 5617 5613 5609 5605 5602 5599 5597 5596 5594 5593 5592 5591 5591 5593 5597 5602 5609 5618 5627 5636 5646 5653 5660 5667 5673 5679 5684 5688 5692 5694 5696 5696 5697 5697 5698
5655 5648 5641 5634 5627 5621 5615 5609 5604 5599 5595 5591 5588 5585 5583 5582 5581 5580 5578 5577 5576 5576 5578 5581 5587 5595 5604 5614 5625 5635 5643 5651 5658 5665 5672 5677 5681 5684 5687 5689 5690 5691 5692
5644 5636 5629 5622 5615 5608 5601 5595 5589 5584 5579 5575 5572 5570 5568 5566 5566 5565 5564 5563 5563 5563 5564 5566 5569 5575 5583 5592 5604 5615 5627 5636 5645 5652 5659 5665 5670 5674 5678 5680 5682 5684 5685
5634 5625 5617 5609 5601 5593 5585 5579 5573 5567 5562 5558 5555 5553 5551 5550 5550 5550 5549 5549 5549 5550 5551 5553 5555 5559 5565 5573 5584 5596 5609 5620 5630 5639 5646 5653 5659 5664 5669 5672 5675 5677 5679
5623 5613 5604 5595 5586 5577 5569 5562 5556 5550 5545 5541 5538 5537 5535 5534 5534 5534 5535 5535 5536 5538 5540 5541 5543 5546 5551 5557 5567 5579 5592 5605 5616 5626 5635 5642 5649 5655 5659 5663 5667 5670 5672
5611 5601 5590 5580 5571 5561 5551 5544 5538 5532 5528 5524 5522 5520 5519 5519 5519 5519 5521 5522 5524 5526 5529 5531 5533 5536 5539 5544 5552 5564 5577 5591 5603 5614 5623 5632 5639 5646 5651 5655 5659 5663 5666
5600 5588 5576 5565 5555 5544 5535 5526 5520 5514 5509 5507 5505 5505 5504 5504 5505 5506 5508 5510 5513 5516 5519 5521 5524 5527 5530 5535 5542 5552 5566 5578 5592 5603 5612 5621 5630 5637 5643 5648 5652 5656 5659
5588 5575 5562 5549 5538 5527 5517 5509 5501 5496 5492 5490 5490 5489 5489 5490 5491 5493 5496 5499 5503 5506 5510 5513 5516 5519 5522 5527 5534 5543 5556 5569 5582 5593 5603 5613 5622 5629 5635 5641 5645 5650 5653
5577 5563 5549 5535 5522 5510 5500 5491 5484 5479 5476 5475 5475 5475 5476 5478 5480 5483 5486 5490 5494 5498 5503 5506 5509 5512 5515 5519 5526 5535 5547 5561 5573 5585 5595 5606 5615 5622 5629 5634 5640 5644 5648